When you browse on this site, cookies collect data to enhance your experience and personalize the content and advertising you see.
Visit our Privacy Policy to learn more. By continuing to use the site, you agree to this use of cookies and data.
EN

Hourly Weather Nagyatad

Today, 25 September, Friday

Time Temperature Precipitation Wind Pressure Humidity
00:00 +18°C° 0 mm 3 mps 744 mmHg 81%
01:00 +18°C° 0 mm 3 mps 744 mmHg 84%
02:00 +17°C° 0 mm 3 mps 743 mmHg 85%
03:00 +17°C° 0 mm 3 mps 743 mmHg 85%
04:00 +17°C° 0 mm 2 mps 742 mmHg 85%
05:00 +17°C° 0.2 mm 3 mps 741 mmHg 81%
06:00 +18°C° 0.2 mm 4 mps 740 mmHg 78%
07:00 +19°C° 0 mm 4 mps 740 mmHg 67%
08:00 +18°C° 1.4 mm 4 mps 740 mmHg 74%
09:00 +18°C° 1.4 mm 4 mps 739 mmHg 82%
10:00 +18°C° 1.4 mm 4 mps 739 mmHg 89%
11:00 +20°C° 0.4 mm 4 mps 739 mmHg 80%
12:00 +22°C° 0.4 mm 4 mps 738 mmHg 71%
13:00 +26°C° 0 mm 4 mps 738 mmHg 60%
14:00 +25°C° 1.2 mm 4 mps 737 mmHg 62%
15:00 +25°C° 1.2 mm 4 mps 737 mmHg 64%
16:00 +25°C° 1.2 mm 4 mps 736 mmHg 67%
17:00 +22°C° 1 mm 4 mps 735 mmHg 74%
18:00 +20°C° 1 mm 3 mps 735 mmHg 81%
19:00 +19°C° 1 mm 3 mps 734 mmHg 87%
20:00 +18°C° 2.3 mm 3 mps 734 mmHg 87%
21:00 +18°C° 2.3 mm 4 mps 733 mmHg 87%
22:00 +17°C° 2.3 mm 5 mps 733 mmHg 87%
23:00 +16°C° 3.2 mm 5 mps 733 mmHg 89%

Tomorrow, 26 September, Saturday

Time Temperature Precipitation Wind Pressure Humidity
00:00 +15°C° 3.2 mm 6 mps 732 mmHg 90%
01:00 +13°C° 3.2 mm 6 mps 732 mmHg 91%
02:00 +12°C° 0.3 mm 5 mps 733 mmHg 92%
03:00 +11°C° 0.3 mm 3 mps 733 mmHg 92%
04:00 +10°C° 0.3 mm 2 mps 733 mmHg 93%
05:00 +10°C° 0 mm 2 mps 734 mmHg 92%
06:00 +10°C° 0 mm 2 mps 734 mmHg 90%
07:00 +10°C° 0 mm 2 mps 735 mmHg 89%
08:00 +12°C° 0 mm 2 mps 735 mmHg 84%
09:00 +13°C° 0 mm 2 mps 736 mmHg 79%
10:00 +14°C° 0 mm 2 mps 736 mmHg 74%
11:00 +14°C° 0 mm 2 mps 736 mmHg 70%
12:00 +14°C° 0 mm 3 mps 737 mmHg 66%
13:00 +15°C° 0 mm 4 mps 737 mmHg 62%
14:00 +14°C° 0.2 mm 4 mps 737 mmHg 63%
15:00 +14°C° 0.2 mm 5 mps 737 mmHg 63%
16:00 +13°C° 0.2 mm 5 mps 737 mmHg 63%
17:00 +12°C° 0 mm 4 mps 738 mmHg 64%
18:00 +12°C° 0 mm 4 mps 738 mmHg 65%
19:00 +11°C° 0 mm 4 mps 739 mmHg 66%
20:00 +11°C° 0 mm 3 mps 739 mmHg 65%
21:00 +10°C° 0 mm 3 mps 740 mmHg 65%
22:00 +10°C° 0 mm 2 mps 740 mmHg 65%
23:00 +9°C° 0 mm 2 mps 741 mmHg 67%

Day after tomorrow, 27 September, Sunday

Time Temperature Precipitation Wind Pressure Humidity
00:00 +10°C° 0 mm 1 mps 741 mmHg 69%
01:00 +10°C° 0 mm 1 mps 741 mmHg 71%
02:00 +9°C° 0 mm 1 mps 742 mmHg 73%
03:00 +9°C° 0 mm 1 mps 742 mmHg 76%
04:00 +8°C° 0 mm 1 mps 742 mmHg 78%
05:00 +9°C° 0 mm 1 mps 743 mmHg 78%
06:00 +9°C° 0 mm 1 mps 743 mmHg 77%
07:00 +9°C° 0 mm 1 mps 743 mmHg 77%
08:00 +11°C° 0 mm 1 mps 744 mmHg 69%
09:00 +13°C° 0 mm 2 mps 744 mmHg 62%
10:00 +14°C° 0 mm 3 mps 745 mmHg 55%
11:00 +16°C° 0 mm 3 mps 745 mmHg 51%
12:00 +17°C° 0 mm 3 mps 745 mmHg 48%
13:00 +18°C° 0 mm 4 mps 745 mmHg 44%
14:00 +18°C° 0 mm 4 mps 745 mmHg 46%
15:00 +17°C° 0 mm 4 mps 745 mmHg 47%
16:00 +17°C° 0 mm 4 mps 744 mmHg 48%
17:00 +16°C° 0 mm 3 mps 745 mmHg 53%
18:00 +13°C° 0 mm 3 mps 745 mmHg 59%
19:00 +12°C° 0 mm 3 mps 745 mmHg 64%
20:00 +12°C° 0 mm 3 mps 745 mmHg 66%
21:00 +12°C° 0 mm 4 mps 745 mmHg 68%
22:00 +12°C° 0 mm 4 mps 744 mmHg 69%
23:00 +11°C° 1.3 mm 4 mps 744 mmHg 77%

28 September, Monday

Time Temperature Precipitation Wind Pressure Humidity
00:00 +11°C° 1.3 mm 4 mps 744 mmHg 84%
01:00 +11°C° 1.3 mm 4 mps 743 mmHg 92%
02:00 +10°C° 0.7 mm 5 mps 743 mmHg 91%
03:00 +10°C° 0.7 mm 5 mps 743 mmHg 91%
04:00 +10°C° 0.7 mm 5 mps 742 mmHg 91%
05:00 +10°C° 0.1 mm 5 mps 742 mmHg 91%
06:00 +12°C° 0.1 mm 4 mps 742 mmHg 90%
07:00 +12°C° 0.1 mm 3 mps 742 mmHg 90%
08:00 +14°C° 0.2 mm 3 mps 742 mmHg 84%
09:00 +16°C° 0.2 mm 3 mps 742 mmHg 77%
10:00 +18°C° 0.2 mm 3 mps 742 mmHg 71%
11:00 +18°C° 0.9 mm 4 mps 742 mmHg 69%
12:00 +19°C° 0.9 mm 4 mps 743 mmHg 67%
13:00 +19°C° 0.9 mm 4 mps 743 mmHg 66%
14:00 +17°C° 0.4 mm 4 mps 743 mmHg 71%
15:00 +15°C° 0.4 mm 4 mps 743 mmHg 75%
16:00 +13°C° 0.4 mm 4 mps 744 mmHg 80%
17:00 +13°C° 0.4 mm 5 mps 744 mmHg 84%
18:00 +12°C° 0.4 mm 5 mps 745 mmHg 87%
19:00 +10°C° 0.4 mm 6 mps 746 mmHg 91%
20:00 +10°C° 0.2 mm 5 mps 746 mmHg 91%
21:00 +11°C° 0.2 mm 4 mps 746 mmHg 91%
22:00 +10°C° 0.2 mm 3 mps 747 mmHg 91%
23:00 +10°C° 0 mm 3 mps 747 mmHg 91%

29 September, Tuesday

Time Temperature Precipitation Wind Pressure Humidity
00:00 +10°C° 0 mm 3 mps 747 mmHg 91%
01:00 +9°C° 0 mm 2 mps 747 mmHg 91%
02:00 +9°C° 0 mm 2 mps 747 mmHg 92%
03:00 +9°C° 0 mm 3 mps 747 mmHg 94%
04:00 +8°C° 0 mm 3 mps 747 mmHg 95%
05:00 +9°C° 0 mm 3 mps 748 mmHg 93%
06:00 +9°C° 0 mm 3 mps 748 mmHg 91%
07:00 +10°C° 0 mm 3 mps 748 mmHg 89%
08:00 +12°C° 0 mm 3 mps 748 mmHg 84%
09:00 +13°C° 0 mm 3 mps 748 mmHg 79%
10:00 +16°C° 0 mm 3 mps 748 mmHg 73%
11:00 +15°C° 0.1 mm 4 mps 748 mmHg 70%
12:00 +17°C° 0.1 mm 4 mps 748 mmHg 68%
13:00 +17°C° 0.1 mm 5 mps 748 mmHg 65%
14:00 +17°C° 0.2 mm 4 mps 748 mmHg 71%
15:00 +16°C° 0.2 mm 3 mps 748 mmHg 77%
16:00 +14°C° 0.2 mm 3 mps 748 mmHg 84%
17:00 +14°C° 0 mm 2 mps 749 mmHg 84%
18:00 +14°C° 0 mm 2 mps 749 mmHg 85%
19:00 +13°C° 0 mm 2 mps 750 mmHg 86%
20:00 +13°C° 0 mm 2 mps 750 mmHg 86%
21:00 +13°C° 0 mm 2 mps 750 mmHg 86%
22:00 +13°C° 0 mm 1 mps 750 mmHg 86%
23:00 +12°C° 0 mm 1 mps 750 mmHg 88%

30 September, Wednesday

Time Temperature Precipitation Wind Pressure Humidity
00:00 +12°C° 0 mm 1 mps 750 mmHg 89%
01:00 +12°C° 0 mm 2 mps 750 mmHg 90%
02:00 +12°C° 0 mm 1 mps 750 mmHg 90%
03:00 +12°C° 0 mm 1 mps 750 mmHg 89%
04:00 +12°C° 0 mm 1 mps 750 mmHg 89%
05:00 +12°C° 0 mm 1 mps 750 mmHg 88%
06:00 +13°C° 0 mm 1 mps 750 mmHg 87%
07:00 +13°C° 0 mm 1 mps 750 mmHg 86%
08:00 +14°C° 0 mm 1 mps 749 mmHg 81%
09:00 +15°C° 0 mm 2 mps 749 mmHg 76%
10:00 +16°C° 0 mm 2 mps 749 mmHg 72%
11:00 +18°C° 0 mm 2 mps 749 mmHg 65%
12:00 +19°C° 0 mm 3 mps 748 mmHg 58%
13:00 +21°C° 0 mm 3 mps 748 mmHg 51%
14:00 +21°C° 0 mm 3 mps 747 mmHg 52%
15:00 +21°C° 0 mm 3 mps 747 mmHg 53%
16:00 +20°C° 0 mm 3 mps 747 mmHg 54%
17:00 +18°C° 0 mm 2 mps 747 mmHg 60%
18:00 +18°C° 0 mm 1 mps 747 mmHg 67%
19:00 +15°C° 0 mm 1 mps 747 mmHg 74%
20:00 +14°C° 0 mm 1 mps 747 mmHg 76%
21:00 +14°C° 0 mm 1 mps 747 mmHg 77%
22:00 +14°C° 0 mm 1 mps 747 mmHg 78%
23:00 +13°C° 0 mm 1 mps 747 mmHg 80%
Show more